VANGUARD DEB, 1576

Orbit data source: Space-Track

VANGUARD DEB, 1576 is space debris in LEO originally from a launch on Mon, 17 Mar 1958 UTC launched from the Air Force Eastern Test Range (AFETR). Debris objects in space refer to the collection of defunct objects orbiting the Earth. Examples of debris include non-operational satellites, rocket bodies, and fragments generated from explosions, collisions, or faulty payload assembly.

Loading next visibility...
Identifier
1576, 1958-002C
Orbit
LEO
Country
Flag of USUS
Related business
Manufacturer
NRL
Mission
Spacecraft
Bus & Motor
Unknown
Mass
Unknown
Launch date (UTC)
1958-03-17 (68 years ago)
Launch vehicle
Unknown
Launch site
Air Force Eastern Test Range (AFETR)
Object type
Payload
Rocket body
Debris
Shape & HBR
Unknown shape, 0.1 m
Radar Cross Section
Small (<0.1 m²)

Expand to show TLE details & history
Last TLE update: 14 hours ago

TLE from 14 hours ago
0 VANGUARD DEB
1 01576U 58002C   25292.02449199  .00000941  00000-0  81294-3 0  9993
2 01576  34.2258 271.2043 1396406 170.7470 192.1948 11.82086086773550
Epoch: 2025-10-19T00:35Z
TLE epoch observation values (Epoch: 2025-10-19T00:35:16.107Z)
Latitude
-0.00003°
Longitude
-125.35995°
Altitude
2,877.78 km
Speed
6.099 km/s
True Right ascension
18h 04m 49s
True Declination
0° 00' 00"
Sunlit
Object was in daylight at epoch
Visualization orbit readout
Latitude
Unknown
Longitude
Unknown
Altitude
Unknown
Speed
Unknown
Apparent Right ascension
Unknown
Apparent Declination
Unknown
Sunlit
N/A
Visualization observer readout
Local Sidereal Time
09:31:53
Azimuth
Unknown
Elevation
Unknown
Doppler factor
Unknown
Orbital elements
Apogee altitude
2,902.124 km
Perigee altitude
627.896 km
Semi-major axis
8,143.147 km
Eccentricity
0.13964
Inclination
34.2258°
RAAN
271.2043°
Arg. of periapsis
170.747°
True anomaly
189.31069°
Mean anomaly
192.1948°
Eccentric anomaly
190.70819°
Mean motion
2.95362 °/min
Orbital period
121.88 mins
BSTAR
0.00081294
Loading maneuver chart data...
Computing Atmospheric mass density...
Loading historical data...
Loading historical data...
Loading historical data...
Loading historical data...
Loading historical data...
Loading historical data...
Loading historical data...
Other satellites on launch #2 in the year 1958 (1958-03-17 UTC)

Documentation

Showing up to 5 results
|